Time,TemperatureF,DewpointF,PressureIn,WindDirection,WindDirectionDegrees,WindSpeedMPH,WindSpeedGustMPH,Humidity,HourlyPrecipIn,Conditions,Clouds,dailyrainin,SolarRadiationWatts/m^2,SoftwareType,DateUTC
2013-09-15 00:02:00,-999.0,-99.9,-100.00,NW,321,0.0,2.0,-999,-99.99,,,-99.99,0.000000,,2013-09-15 04:02:00,
2013-09-15 00:43:00,54.0,54.0,-100.00,NNW,327,0.0,0.0,100,0.00,,,0.00,0.000000,,2013-09-15 04:43:00,
2013-09-15 00:55:00,54.0,54.0,-100.00,NNW,327,0.0,0.0,100,0.00,,,0.00,0.000000,,2013-09-15 04:55:00,
2013-09-15 01:03:00,54.0,54.0,-100.00,NNW,327,0.0,0.0,100,0.00,,,0.00,0.000000,,2013-09-15 05:03:00,
2013-09-15 01:42:00,53.0,53.0,-100.00,NW,322,0.0,0.0,100,0.00,,,0.00,0.000000,,2013-09-15 05:42:00,
2013-09-15 01:52:00,53.0,53.0,-100.00,NW,322,0.0,0.0,100,0.00,,,0.00,0.000000,,2013-09-15 05:52:00,
2013-09-15 02:02:00,53.0,53.0,-100.00,NW,322,0.0,0.0,100,0.00,,,0.00,0.000000,,2013-09-15 06:02:00,
2013-09-15 02:42:00,54.0,54.0,-100.00,SSE,156,3.0,5.0,100,0.00,,,0.00,0.000000,,2013-09-15 06:42:00,
2013-09-15 02:52:00,54.0,54.0,-100.00,SSE,156,3.0,5.0,100,0.00,,,0.00,0.000000,,2013-09-15 06:52:00,
2013-09-15 03:02:00,54.0,54.0,-100.00,SSE,156,3.0,5.0,100,0.00,,,0.00,0.000000,,2013-09-15 07:02:00,
2013-09-15 03:42:00,55.0,55.0,-100.00,SSE,165,1.0,5.0,100,0.00,,,0.00,0.000000,,2013-09-15 07:42:00,
2013-09-15 03:53:00,55.0,55.0,-100.00,SSE,165,1.0,5.0,100,0.00,,,0.00,0.000000,,2013-09-15 07:53:00,
2013-09-15 04:02:00,55.0,55.0,-100.00,SSE,165,1.0,5.0,100,0.00,,,0.00,0.000000,,2013-09-15 08:02:00,
2013-09-15 04:43:00,59.0,57.0,-100.00,SE,146,4.0,10.0,92,0.00,,,0.00,0.000000,,2013-09-15 08:43:00,
2013-09-15 04:52:00,59.0,57.0,-100.00,SE,146,4.0,10.0,92,0.00,,,0.00,0.000000,,2013-09-15 08:52:00,
2013-09-15 05:02:00,59.0,57.0,-100.00,SE,146,4.0,10.0,92,0.00,,,0.00,0.000000,,2013-09-15 09:02:00,
2013-09-15 05:44:00,59.0,56.0,-100.00,SE,145,5.0,10.0,91,0.00,,,0.00,0.000000,,2013-09-15 09:44:00,
2013-09-15 05:54:00,59.0,56.0,-100.00,SE,145,5.0,10.0,91,0.00,,,0.00,0.000000,,2013-09-15 09:54:00,
2013-09-15 06:03:00,59.0,56.0,-100.00,SE,145,5.0,10.0,91,0.00,,,0.00,0.000000,,2013-09-15 10:03:00,
2013-09-15 06:43:00,58.0,56.0,-100.00,SSE,160,4.0,9.0,92,0.00,,,0.00,0.000000,,2013-09-15 10:43:00,
2013-09-15 06:53:00,58.0,56.0,-100.00,SSE,160,4.0,9.0,92,0.00,,,0.00,0.000000,,2013-09-15 10:53:00,
2013-09-15 07:02:00,58.0,56.0,-100.00,SSE,160,4.0,9.0,92,0.00,,,0.00,0.000000,,2013-09-15 11:02:00,
2013-09-15 07:42:00,58.0,56.0,-100.00,SSE,154,4.0,8.0,93,0.00,,,0.00,0.000000,,2013-09-15 11:42:00,
2013-09-15 07:52:00,58.0,56.0,-100.00,SSE,154,4.0,8.0,93,0.00,,,0.00,0.000000,,2013-09-15 11:52:00,
2013-09-15 08:02:00,58.0,56.0,-100.00,SSE,154,4.0,8.0,93,0.00,,,0.00,0.000000,,2013-09-15 12:02:00,
2013-09-15 08:42:00,60.0,57.0,-100.00,SSE,159,5.0,10.0,89,0.00,,,0.00,14.000000,,2013-09-15 12:42:00,
2013-09-15 08:52:00,60.0,57.0,-100.00,SSE,159,5.0,10.0,89,0.00,,,0.00,14.000000,,2013-09-15 12:52:00,
2013-09-15 09:02:00,60.0,57.0,-100.00,SSE,159,5.0,10.0,89,0.00,,,0.00,14.000000,,2013-09-15 13:02:00,
2013-09-15 09:42:00,64.0,58.0,-100.00,SE,140,6.0,11.0,80,0.00,,,0.00,200.000000,,2013-09-15 13:42:00,
2013-09-15 09:53:00,64.0,58.0,-100.00,SE,140,6.0,11.0,80,0.00,,,0.00,200.000000,,2013-09-15 13:53:00,
2013-09-15 10:02:00,64.0,58.0,-100.00,SE,140,6.0,11.0,80,0.00,,,0.00,200.000000,,2013-09-15 14:02:00,
2013-09-15 15:42:00,78.0,58.0,-100.00,SSE,168,4.0,10.0,50,0.00,,,0.00,732.000000,,2013-09-15 19:42:00,
2013-09-15 15:52:00,78.0,58.0,-100.00,SSE,168,4.0,10.0,50,0.00,,,0.00,732.000000,,2013-09-15 19:52:00,
2013-09-15 16:02:00,78.0,58.0,-100.00,SSE,168,4.0,10.0,50,0.00,,,0.00,732.000000,,2013-09-15 20:02:00,
2013-09-15 16:42:00,81.0,58.0,-100.00,SSW,213,5.0,11.0,46,0.00,,,0.00,651.000000,,2013-09-15 20:42:00,
2013-09-15 16:53:00,81.0,58.0,-100.00,SSW,213,5.0,11.0,46,0.00,,,0.00,651.000000,,2013-09-15 20:53:00,
2013-09-15 17:02:00,81.0,58.0,-100.00,SSW,213,5.0,11.0,46,0.00,,,0.00,651.000000,,2013-09-15 21:02:00,
2013-09-15 17:44:00,78.0,57.0,-100.00,SSW,205,4.0,12.0,49,0.00,,,0.00,451.000000,,2013-09-15 21:44:00,
2013-09-15 17:54:00,78.0,57.0,-100.00,SSW,205,4.0,12.0,49,0.00,,,0.00,451.000000,,2013-09-15 21:54:00,
2013-09-15 18:04:00,78.0,57.0,-100.00,SSW,205,4.0,12.0,49,0.00,,,0.00,451.000000,,2013-09-15 22:04:00,
2013-09-15 18:44:00,78.0,60.0,-100.00,SSW,210,5.0,9.0,54,0.00,,,0.00,416.000000,,2013-09-15 22:44:00,
2013-09-15 18:53:00,78.0,60.0,-100.00,SSW,210,5.0,9.0,54,0.00,,,0.00,416.000000,,2013-09-15 22:53:00,
2013-09-15 19:02:00,78.0,60.0,-100.00,SSW,210,5.0,9.0,54,0.00,,,0.00,416.000000,,2013-09-15 23:02:00,
2013-09-15 19:42:00,73.0,63.0,-100.00,SW,220,1.0,9.0,70,0.00,,,0.00,130.000000,,2013-09-15 23:42:00,
2013-09-15 19:53:00,73.0,63.0,-100.00,SW,220,1.0,9.0,70,0.00,,,0.00,130.000000,,2013-09-15 23:53:00,
2013-09-15 20:01:00,73.0,63.0,-100.00,SW,220,1.0,9.0,70,0.00,,,0.00,130.000000,,2013-09-16 00:01:00,
2013-09-15 22:42:00,61.0,61.0,-100.00,NNW,335,0.0,2.0,100,0.00,,,0.00,0.000000,,2013-09-16 02:42:00,
2013-09-15 22:52:00,61.0,61.0,-100.00,NNW,335,0.0,2.0,100,0.00,,,0.00,0.000000,,2013-09-16 02:52:00,
2013-09-15 23:02:00,61.0,61.0,-100.00,NNW,335,0.0,2.0,100,0.00,,,0.00,0.000000,,2013-09-16 03:02:00,
2013-09-15 23:05:00,61.0,61.0,-100.00,NNW,344,0.0,2.0,100,0.00,,,0.00,0.000000,,2013-09-16 03:05:00,
2013-09-15 23:45:00,61.0,61.0,-100.00,NNW,344,0.0,2.0,100,0.00,,,0.00,0.000000,,2013-09-16 03:45:00,
2013-09-15 23:55:00,61.0,61.0,-100.00,NNW,344,0.0,2.0,100,0.00,,,0.00,0.000000,,2013-09-16 03:55:00,